Date,TemperatureHighF,TemperatureAvgF,TemperatureLowF,DewpointHighF,DewpointAvgF,DewpointLowF,HumidityHigh,HumidityAvg,HumidityLow,PressureMaxIn,PressureMinIn,WindSpeedMaxMPH,WindSpeedAvgMPH,GustSpeedMaxMPH,PrecipitationSumIn
2014-1-1,65,63,61,-100,-100,-100,0,0,100,0.00,40.00,7,5,13,0.00
2014-1-2,78,70,63,-100,-100,-100,0,0,100,0.00,40.00,16,5,28,0.00
2014-1-3,63,51,46,-100,-100,-100,0,0,100,0.00,40.00,13,7,23,0.00
2014-1-4,67,58,47,-100,-100,-100,0,0,100,0.00,40.00,7,4,16,0.00
2014-1-5,80,69,61,-100,-100,-100,0,0,100,0.00,40.00,6,2,10,0.00
2014-1-6,75,62,50,-100,-100,-100,0,0,100,0.00,40.00,15,7,23,0.00
2014-1-7,49,44,37,-100,-100,-100,0,0,100,0.00,40.00,9,6,22,0.00
2014-1-8,62,48,40,-100,-100,-100,0,0,100,0.00,40.00,8,5,15,0.00
2014-1-10,72,70,69,-100,-100,-100,0,0,100,0.00,40.00,0,0,1,0.00
2014-1-11,79,72,67,-100,-100,-100,0,0,100,0.00,40.00,7,3,15,0.00
2014-1-12,67,66,64,-100,-100,-100,0,0,100,0.00,40.00,9,4,16,0.00
2014-1-14,69,64,58,-100,-100,-100,0,0,100,0.00,40.00,7,4,11,0.00
2014-1-15,65,59,54,-100,-100,-100,0,0,100,0.00,40.00,10,3,18,0.00
2014-1-16,58,51,43,-100,-100,-100,0,0,100,0.00,40.00,10,6,17,0.00
2014-1-17,64,52,41,-100,-100,-100,0,0,100,0.00,40.00,6,1,10,0.00
2014-1-18,59,56,54,-100,-100,-100,0,0,100,0.00,40.00,8,3,17,0.00
2014-1-22,52,50,43,-100,-100,-100,0,0,100,30.18,30.09,9,6,17,0.00
2014-1-23,62,51,41,-100,-100,-100,0,0,100,30.34,30.16,7,3,13,0.00
2014-1-24,59,52,46,-100,-100,-100,0,0,100,30.44,30.27,8,5,14,0.00
2014-1-25,65,56,49,-100,-100,-100,0,0,100,30.27,30.03,6,2,10,0.00
2014-1-26,64,62,58,-100,-100,-100,0,0,100,30.06,29.97,5,2,8,0.00
2014-1-27,71,66,63,-100,-100,-100,0,0,100,30.01,29.93,3,1,7,0.00
2014-1-28,76,68,59,-100,-100,-100,0,0,100,30.04,29.96,6,2,10,0.00
2014-1-29,65,56,48,-100,-100,-100,0,0,100,30.18,29.97,8,5,15,0.00
2014-1-30,53,50,46,-100,-100,-100,0,0,100,30.18,30.08,6,4,11,0.00
2014-1-31,62,57,53,-100,-100,-100,0,0,100,30.09,30.01,6,3,11,0.00
2014-2-1,79,69,62,-100,-100,-100,0,0,100,30.10,30.02,5,2,8,0.00
2014-2-2,81,71,65,-100,-100,-100,0,0,100,30.13,30.02,6,1,8,0.00
2014-2-3,80,71,65,-100,-100,-100,0,0,100,30.10,30.01,6,2,10,0.00
2014-2-4,82,72,65,-100,-100,-100,0,0,100,30.10,29.99,5,2,7,0.00
2014-2-5,77,73,69,-100,-100,-100,0,0,100,30.06,29.98,6,2,13,0.00
2014-2-6,71,66,56,-100,-100,-100,0,0,100,30.14,30.01,7,4,14,0.00
2014-2-7,60,57,53,-100,-100,-100,0,0,100,30.16,30.09,8,5,16,0.00
2014-2-8,63,60,58,-100,-100,-100,0,0,100,30.11,30.04,6,4,11,0.00
2014-2-9,72,62,57,-100,-100,-100,0,0,100,30.13,30.02,6,4,10,0.00
2014-2-10,75,64,54,-100,-100,-100,0,0,100,30.11,30.01,5,2,8,0.00
2014-2-11,74,66,60,-100,-100,-100,0,0,100,30.06,29.99,6,3,10,0.00
2014-2-12,74,64,59,-100,-100,-100,0,0,100,30.03,29.71,5,3,10,0.00
2014-2-13,67,59,52,-100,-100,-100,0,0,100,29.98,29.71,15,9,21,0.00
2014-2-14,62,53,44,-100,-100,-100,0,0,100,30.06,29.96,5,2,13,0.00
2014-2-15,64,60,54,-100,-100,-100,0,0,100,30.14,29.92,11,6,16,0.00
2014-2-16,70,55,45,-100,-100,-100,0,0,100,30.18,30.10,7,2,11,0.00
2014-2-17,77,62,55,-100,-100,-100,0,0,100,30.21,30.14,5,2,8,0.00
2014-2-18,77,62,53,-100,-100,-100,0,0,100,30.23,30.13,6,2,9,0.00
2014-2-19,79,70,63,-100,-100,-100,0,0,100,30.16,30.06,6,2,9,0.00
2014-2-20,84,73,61,-100,-100,-100,0,0,100,30.12,30.01,6,2,15,0.00